SP8EBC-11 Weather Reports


time (UTC)temp
F
wind
direction
speed
knots
gust
knots
rain 1hr
in
rain 24hr
in
rain mn
in
humidity
%
barometer
mb
20260905235620 53 236 7.8 13.0 0.00 0.00 0.00 93 995.8
20260905235420 53 240 7.0 9.6 0.00 0.00 0.00 93 995.7
20260905235220 53 233 7.0 8.7 0.00 0.00 0.00 93 995.7
20260905235020 53 233 7.0 9.6 0.00 0.00 0.00 93 995.7
20260905234819 53 232 7.8 9.6 0.00 0.00 0.00 93 995.7
20260905234619 53 232 7.0 9.6 0.00 0.00 0.00 93 995.6
20260905234419 53 230 7.8 10.4 0.00 0.00 0.00 93 995.6
20260905234219 53 235 7.8 10.4 0.00 0.00 0.00 93 995.6
20260905234021 53 236 7.0 10.4 0.00 0.00 0.00 93 995.6
20260905233819 53 235 7.8 10.4 0.00 0.00 0.00 93 995.6
20260905233619 53 233 7.8 10.4 0.00 0.00 0.00 93 995.6
20260905233419 53 235 8.7 13.0 0.00 0.00 0.00 93 995.5
20260905233219 53 236 8.7 12.2 0.00 0.00 0.00 93 995.5
20260905233019 53 233 7.8 11.3 0.00 0.00 0.00 93 995.5
20260905232819 53 230 7.8 9.6 0.00 0.00 0.00 93 995.6
20260905232619 53 233 7.8 11.3 0.00 0.00 0.00 93 995.6
20260905232419 53 231 8.7 12.2 0.00 0.00 0.00 93 995.5
20260905232219 53 230 8.7 11.3 0.00 0.00 0.00 93 995.5
20260905232019 53 234 9.6 12.2 0.00 0.00 0.00 93 995.5
20260905231819 53 234 9.6 12.2 0.00 0.00 0.00 93 995.5
20260905231618 53 233 7.8 8.7 0.00 0.00 0.00 93 995.4
20260905231418 53 231 8.7 11.3 0.00 0.00 0.00 93 995.4
20260905231218 53 233 8.7 11.3 0.00 0.00 0.00 93 995.4
20260905231018 53 233 9.6 12.2 0.00 0.00 0.00 93 995.4
20260905230818 53 237 10.4 12.2 0.00 0.00 0.00 93 995.3
20260905230618 53 233 9.6 12.2 0.00 0.00 0.00 93 995.3
20260905230418 53 230 9.6 13.0 0.00 0.00 0.00 93 995.3
20260905230218 53 231 8.7 13.0 0.00 0.00 0.00 92 995.3
20260905230018 53 232 8.7 12.2 0.00 0.00 0.00 93 995.3
20260905225818 53 233 10.4 13.0 0.00 0.00 0.00 93 995.3
20260905225618 53 232 9.6 12.2 0.00 0.00 0.00 93 995.3
20260905225418 53 232 8.7 12.2 0.00 0.00 0.00 93 995.3
20260905225218 53 234 7.8 10.4 0.00 0.00 0.00 93 995.3
20260905225018 53 236 8.7 13.0 0.00 0.00 0.00 93 995.2
20260905224818 53 236 9.6 12.2 0.00 0.00 0.00 93 995.2
20260905224617 53 232 10.4 11.3 0.00 0.00 0.00 93 995.2
20260905224417 53 231 9.6 11.3 0.00 0.00 0.00 92 995.2
20260905224217 53 230 7.8 10.4 0.00 0.00 0.00 93 995.2
20260905224017 53 229 9.6 13.9 0.00 0.00 0.00 92 995.2
20260905223817 53 229 9.6 11.3 0.00 0.00 0.00 92 995.2
20260905223617 53 233 8.7 11.3 0.00 0.00 0.00 92 995.3
20260905223417 53 231 8.7 10.4 0.00 0.00 0.00 92 995.3
20260905223219 53 232 7.8 9.6 0.00 0.00 0.00 92 995.3
20260905223017 53 233 8.7 11.3 0.00 0.00 0.00 92 995.3
20260905222608 53 235 9.6 12.2 0.00 0.00 0.00 92 995.3
20260905222408 53 235 8.7 10.4 0.00 0.00 0.00 92 995.3
20260905222208 53 231 8.7 11.3 0.00 0.00 0.00 92 995.3
20260905222008 53 228 8.7 13.9 0.00 0.00 0.00 92 995.3
20260905221808 53 230 7.8 10.4 0.00 0.00 0.00 92 995.3
20260905221608 53 231 7.8 10.4 0.00 0.00 0.00 92 995.3
20260905221408 53 230 7.8 10.4 0.00 0.00 0.00 92 995.3
20260905221207 53 235 7.8 10.4 0.00 0.00 0.00 92 995.3
20260905221007 53 233 8.7 12.2 0.00 0.00 0.00 92 995.3
20260905220807 53 233 8.7 13.0 0.00 0.00 0.00 92 995.3
20260905220607 53 232 7.0 10.4 0.00 0.00 0.00 92 995.3
20260905220407 53 235 7.8 12.2 0.00 0.00 0.00 92 995.3
20260905220207 53 236 7.8 10.4 0.00 0.00 0.00 92 995.3
20260905220007 53 237 8.7 11.3 0.00 0.00 0.00 92 995.3
20260905215807 53 235 8.7 13.0 0.00 0.00 0.00 92 995.3
20260905215607 53 235 7.8 11.3 0.00 0.00 0.00 92 995.3
20260905215407 53 238 7.8 11.3 0.00 0.00 0.00 92 995.3
20260905215207 53 236 7.8 9.6 0.00 0.00 0.00 92 995.2
20260905215007 53 233 8.7 13.0 0.00 0.00 0.00 92 995.2
20260905214807 53 234 9.6 11.3 0.00 0.00 0.00 92 995.2
20260905214607 53 235 7.8 10.4 0.00 0.00 0.00 92 995.2
20260905214407 53 235 8.7 11.3 0.00 0.00 0.00 92 995.2
20260905214207 53 234 8.7 11.3 0.00 0.00 0.00 92 995.2
20260905214006 53 233 7.8 10.4 0.00 0.00 0.00 92 995.2
20260905213806 53 233 7.0 9.6 0.00 0.00 0.00 92 995.1
20260905213606 53 235 7.8 10.4 0.00 0.00 0.00 92 995.1
20260905213406 53 235 7.8 10.4 0.00 0.00 0.00 92 995.1
20260905213206 53 233 8.7 10.4 0.00 0.00 0.00 92 995.2
20260905213006 53 230 7.8 10.4 0.00 0.00 0.00 92 995.2
20260905212806 53 232 7.0 9.6 0.00 0.00 0.00 92 995.1
20260905212606 53 232 7.8 10.4 0.00 0.00 0.00 91 995.1
20260905212406 53 234 8.7 10.4 0.00 0.00 0.00 91 995.1
20260905212206 53 232 8.7 13.0 0.00 0.00 0.00 91 995.1
20260905212006 53 238 8.7 12.2 0.00 0.00 0.00 91 995.1
20260905211806 53 233 9.6 13.9 0.00 0.00 0.00 91 995.1
20260905211606 53 231 8.7 10.4 0.00 0.00 0.00 91 995.1
20260905211406 53 231 8.7 11.3 0.00 0.00 0.00 91 995.1
20260905211206 53 233 8.7 11.3 0.00 0.00 0.00 91 995.0
20260905211005 53 233 7.8 10.4 0.00 0.00 0.00 91 995.0
20260905210805 53 230 8.7 13.0 0.00 0.00 0.00 91 995.0
20260905210605 53 234 9.6 13.0 0.00 0.00 0.00 91 995.0
20260905210405 53 234 9.6 13.0 0.00 0.00 0.00 91 994.9
20260905210205 53 232 8.7 12.2 0.00 0.00 0.00 91 995.0
20260905210005 53 232 8.7 12.2 0.00 0.00 0.00 91 995.0
20260905205805 53 233 8.7 11.3 0.00 0.00 0.00 91 994.9
20260905205605 53 232 8.7 13.0 0.00 0.00 0.00 91 994.9
20260905205405 53 228 9.6 13.0 0.00 0.00 0.00 91 994.9
20260905205205 53 228 7.8 10.4 0.00 0.00 0.00 91 994.9
20260905205005 53 226 6.1 9.6 0.00 0.00 0.00 91 994.9
20260905204805 53 221 7.8 11.3 0.00 0.00 0.00 91 994.9
20260905204605 53 223 7.8 10.4 0.00 0.00 0.00 91 994.9
20260905204405 53 222 7.8 10.4 0.00 0.00 0.00 91 994.9
20260905204205 53 225 7.8 10.4 0.00 0.00 0.00 91 994.9
20260905204005 53 228 7.0 9.6 0.00 0.00 0.00 91 994.9
20260905203805 53 227 7.8 11.3 0.00 0.00 0.00 91 994.9
20260905203604 53 229 7.8 11.3 0.00 0.00 0.00 91 994.9
20260905203404 53 230 7.8 10.4 0.00 0.00 0.00 91 994.9
20260905203204 53 228 7.0 9.6 0.00 0.00 0.00 91 995.0
20260905203004 53 228 7.0 8.7 0.00 0.00 0.00 91 995.0
20260905202804 53 230 7.0 8.7 0.00 0.00 0.00 91 995.0
20260905202604 53 230 7.8 10.4 0.00 0.00 0.00 91 995.1
20260905202405 53 231 7.8 10.4 0.00 0.00 0.00 91 995.0
20260905202204 53 229 7.8 10.4 0.00 0.00 0.00 91 995.0
20260905202003 53 231 7.8 10.4 0.00 0.00 0.00 90 995.0
20260905201804 54 229 7.8 10.4 0.00 0.00 0.00 90 995.0
20260905201603 54 235 7.0 10.4 0.00 0.00 0.00 90 995.0
20260905201404 54 237 8.7 12.2 0.00 0.00 0.00 90 995.1
20260905201204 54 238 9.6 12.2 0.00 0.00 0.00 90 995.1
20260905201004 54 234 8.7 11.3 0.00 0.00 0.00 90 995.1
20260905200802 54 233 7.0 8.7 0.00 0.00 0.00 90 995.0
20260905200603 54 236 6.1 7.8 0.00 0.00 0.00 90 995.0
20260905200403 54 244 6.1 8.7 0.00 0.00 0.00 90 994.9
20260905200203 54 242 7.0 8.7 0.00 0.00 0.00 90 994.9
20260905200002 54 242 7.0 8.7 0.00 0.00 0.00 90 994.9
20260905195802 54 239 7.8 9.6 0.00 0.00 0.00 90 994.9
20260905195603 54 238 7.0 9.6 0.00 0.00 0.00 90 995.0
20260905195402 54 238 7.0 8.7 0.00 0.00 0.00 90 995.0
20260905195155 54 239 6.1 8.7 0.00 0.00 0.00 90 995.0
20260905194955 54 235 7.0 9.6 0.00 0.00 0.00 90 995.0
20260905194755 54 238 7.8 9.6 0.00 0.00 0.00 90 995.0
20260905194555 54 238 8.7 10.4 0.00 0.00 0.00 90 995.1
20260905194355 54 236 7.8 10.4 0.00 0.00 0.00 90 995.1
20260905194155 54 242 7.8 9.6 0.00 0.00 0.00 90 995.0
20260905193955 54 246 7.8 9.6 0.00 0.00 0.00 90 995.0
20260905193755 54 245 8.7 11.3 0.00 0.00 0.00 90 995.0
20260905193554 54 238 9.6 12.2 0.00 0.00 0.00 90 995.0
20260905193355 54 238 9.6 13.9 0.00 0.00 0.00 90 995.0
20260905193154 54 235 7.8 10.4 0.00 0.00 0.00 90 995.0
20260905192954 54 233 8.7 11.3 0.00 0.00 0.00 90 995.0
20260905192754 53 234 8.7 11.3 0.00 0.00 0.00 90 995.0
20260905192554 53 238 7.8 10.4 0.00 0.00 0.00 90 995.0
20260905192354 53 231 7.8 10.4 0.00 0.00 0.00 90 995.0
20260905192154 53 226 6.1 9.6 0.00 0.00 0.00 90 995.0
20260905191954 53 229 5.2 7.0 0.00 0.00 0.00 90 995.0
20260905191754 53 225 6.1 7.8 0.00 0.00 0.00 90 995.0
20260905191554 53 226 7.0 7.8 0.00 0.00 0.00 90 995.0
20260905191354 53 223 7.0 10.4 0.00 0.00 0.00 90 995.1
20260905191154 53 227 6.1 9.6 0.00 0.00 0.00 90 995.0
20260905190954 54 226 7.8 10.4 0.00 0.00 0.00 90 995.0
20260905190754 53 225 7.8 10.4 0.00 0.00 0.00 90 995.0
20260905190553 53 224 7.0 9.6 0.00 0.00 0.00 90 995.0
20260905190353 53 223 7.0 8.7 0.00 0.00 0.00 90 995.0
20260905190153 54 220 7.0 8.7 0.00 0.00 0.00 90 995.0
20260905185957 54 218 7.0 10.4 0.00 0.00 0.00 90 995.0
20260905185754 54 211 7.0 10.4 0.00 0.00 0.00 90 995.0
20260905185553 54 215 7.0 9.6 0.00 0.00 0.00 90 995.0
20260905185353 54 212 7.8 10.4 0.00 0.00 0.00 90 995.1
20260905185153 53 213 7.0 10.4 0.00 0.00 0.00 90 995.1
20260905184953 53 213 7.8 11.3 0.00 0.00 0.00 90 995.1
20260905184753 53 210 8.7 9.6 0.00 0.00 0.00 90 995.1
20260905184553 53 213 7.8 10.4 0.00 0.00 0.00 90 995.1
20260905184353 53 214 7.0 8.7 0.00 0.00 0.00 89 995.1
20260905184153 53 217 7.0 10.4 0.00 0.00 0.00 90 995.1
20260905183953 53 215 7.0 10.4 0.00 0.00 0.00 89 995.1
20260905183753 53 210 7.0 9.6 0.00 0.00 0.00 89 995.1
20260905183553 53 209 7.0 9.6 0.00 0.00 0.00 89 995.1
20260905183352 53 207 7.0 9.6 0.00 0.00 0.00 89 995.1
20260905183152 53 207 6.1 7.8 0.00 0.00 0.00 89 995.1
20260905182954 53 209 6.1 8.7 0.00 0.00 0.00 90 995.1
20260905182752 53 207 7.0 11.3 0.00 0.00 0.00 89 995.1
20260905182552 53 208 7.0 9.6 0.00 0.00 0.00 89 995.1
20260905182352 53 203 7.0 9.6 0.00 0.00 0.00 89 995.2
20260905182152 53 202 6.1 7.8 0.00 0.00 0.00 89 995.2
20260905181952 53 209 5.2 7.8 0.00 0.00 0.00 89 995.2
20260905181752 53 212 6.1 7.8 0.00 0.00 0.00 89 995.2
20260905181552 53 215 6.1 7.8 0.00 0.00 0.00 89 995.2
20260905181352 53 209 5.2 7.8 0.00 0.00 0.00 89 995.2
20260905181152 53 211 5.2 7.0 0.00 0.00 0.00 89 995.3
20260905180952 53 214 5.2 7.0 0.00 0.00 0.00 89 995.3
20260905180752 53 215 5.2 7.8 0.00 0.00 0.00 89 995.3
20260905180552 53 217 6.1 7.8 0.00 0.00 0.00 89 995.3
20260905180351 53 214 5.2 7.0 0.00 0.00 0.00 89 995.3
20260905180151 53 215 5.2 7.0 0.00 0.00 0.00 89 995.3
20260905175951 53 215 4.3 5.2 0.00 0.00 0.00 89 995.3
20260905175751 53 213 3.5 4.3 0.00 0.00 0.00 89 995.3
20260905175551 53 211 4.3 5.2 0.00 0.00 0.00 89 995.4
20260905175351 53 212 3.5 5.2 0.00 0.00 0.00 89 995.4
20260905175152 53 212 3.5 5.2 0.00 0.00 0.00 89 995.3
20260905174951 53 211 4.3 5.2 0.00 0.00 0.00 88 995.3
20260905174751 53 217 5.2 6.1 0.00 0.00 0.00 88 995.3
20260905174551 53 219 4.3 6.1 0.00 0.00 0.00 89 995.3
20260905174351 53 227 4.3 6.1 0.00 0.00 0.00 88 995.3
20260905174151 53 230 4.3 5.2 0.00 0.00 0.00 88 995.3
20260905173951 53 229 4.3 5.2 0.00 0.00 0.00 88 995.3
20260905173751 53 229 4.3 5.2 0.00 0.00 0.00 88 995.2
20260905173551 53 230 4.3 5.2 0.00 0.00 0.00 88 995.2
20260905173351 53 230 4.3 6.1 0.00 0.00 0.00 88 995.2
20260905173150 53 230 4.3 6.1 0.00 0.00 0.00 88 995.3
20260905172950 53 232 4.3 7.0 0.00 0.00 0.00 88 995.3
20260905172750 53 233 5.2 7.0 0.00 0.00 0.00 88 995.2
20260905172550 53 233 4.3 7.0 0.00 0.00 0.00 88 995.2
20260905172350 54 236 5.2 7.0 0.00 0.00 0.00 88 995.2
20260905172150 54 235 6.1 9.6 0.00 0.00 0.00 88 995.2
20260905171950 53 240 6.1 9.6 0.00 0.00 0.00 88 995.2
20260905171545 54 244 5.2 9.6 0.00 0.00 0.00 88 995.1
20260905171345 54 242 5.2 7.0 0.00 0.00 0.00 88 995.1
20260905171145 54 245 5.2 7.0 0.00 0.00 0.00 88 995.0
20260905170945 54 238 6.1 7.8 0.00 0.00 0.00 88 995.0
20260905170745 54 234 6.1 7.8 0.00 0.00 0.00 88 994.9
20260905170545 54 232 6.1 8.7 0.00 0.00 0.00 88 994.9
20260905170345 54 230 6.1 7.8 0.00 0.00 0.00 88 994.9
20260905170145 54 227 6.1 7.0 0.00 0.00 0.00 87 994.8
20260905165944 54 228 5.2 7.8 0.00 0.00 0.00 87 994.8
20260905165744 54 233 6.1 7.8 0.00 0.00 0.00 88 994.8
20260905165544 54 235 5.2 7.8 0.00 0.00 0.00 87 994.7
20260905165344 54 237 5.2 7.0 0.00 0.00 0.00 87 994.7
20260905165144 54 238 6.1 7.8 0.00 0.00 0.00 87 994.7
20260905164944 54 235 6.1 7.8 0.00 0.00 0.00 87 994.7
20260905164744 54 236 5.2 6.1 0.00 0.00 0.00 87 994.7
20260905164543 54 236 6.1 8.7 0.00 0.00 0.00 87 994.7
20260905164343 54 236 7.0 7.8 0.00 0.00 0.00 87 994.7
20260905164144 54 236 6.1 7.8 0.00 0.00 0.00 87 994.7
20260905163943 54 234 7.0 8.7 0.00 0.00 0.00 87 994.6
20260905163744 54 236 7.0 9.6 0.00 0.00 0.00 87 994.5
20260905163543 54 236 7.8 9.6 0.00 0.00 0.00 87 994.4
20260905163344 54 236 7.0 8.7 0.00 0.00 0.00 87 994.4
20260905163143 54 236 5.2 7.8 0.00 0.00 0.00 87 994.5
20260905162942 54 236 6.1 8.7 0.00 0.00 0.00 87 994.6
20260905162742 54 233 7.0 8.7 0.00 0.00 0.00 87 994.6
20260905162542 54 227 6.1 8.7 0.00 0.00 0.00 87 994.6
20260905162342 54 227 5.2 7.8 0.00 0.00 0.00 87 994.6
20260905162144 54 227 7.0 8.7 0.00 0.00 0.00 87 994.7
20260905161943 54 225 7.0 8.7 0.00 0.00 0.00 87 994.7
20260905161742 54 224 7.8 10.4 0.00 0.00 0.00 87 994.8
20260905161543 54 222 8.7 12.2 0.00 0.00 0.00 87 994.8
20260905161342 54 224 7.8 10.4 0.00 0.00 0.00 87 994.9
20260905161142 54 227 8.7 10.4 0.00 0.00 0.00 87 994.9
20260905160942 54 225 7.8 10.4 0.00 0.00 0.00 87 994.9
20260905160742 54 228 7.8 9.6 0.00 0.00 0.00 87 995.0
20260905160542 54 232 7.0 8.7 0.00 0.00 0.00 87 995.0
20260905160342 54 230 7.8 10.4 0.00 0.00 0.00 87 995.0
20260905160142 54 233 8.7 12.2 0.00 0.00 0.00 87 995.0
20260905155941 54 232 8.7 11.3 0.00 0.00 0.00 87 995.1
20260905155741 54 233 8.7 13.9 0.00 0.00 0.00 87 995.2
20260905155541 54 237 11.3 16.5 0.00 0.00 0.00 87 995.2
20260905155341 54 236 11.3 14.8 0.00 0.00 0.00 87 995.1
20260905155141 54 238 10.4 15.6 0.00 0.00 0.00 87 995.1
20260905154941 54 245 11.3 15.6 0.00 0.00 0.00 87 995.1
20260905154741 54 244 10.4 12.2 0.00 0.00 0.00 87 995.0
20260905154541 54 242 9.6 12.2 0.00 0.00 0.00 87 994.9
20260905154341 54 238 8.7 10.4 0.00 0.00 0.00 87 994.9
20260905154141 54 239 7.8 10.4 0.00 0.00 0.00 87 994.8
20260905153941 54 241 7.0 8.7 0.00 0.00 0.00 87 994.8
20260905153741 54 244 7.0 8.7 0.00 0.00 0.00 86 994.8
20260905153541 54 241 7.0 8.7 0.00 0.00 0.00 86 994.7
20260905153341 54 238 7.0 8.7 0.00 0.00 0.00 86 994.7
20260905153141 54 241 6.1 7.8 0.00 0.00 0.00 86 994.7
20260905152941 54 244 6.1 8.7 0.00 0.00 0.00 86 994.7
20260905152740 54 249 6.1 8.7 0.00 0.00 0.00 86 994.7
20260905152541 54 258 5.2 7.0 0.00 0.00 0.00 86 994.7
20260905152340 54 271 5.2 7.8 0.00 0.00 0.00 85 994.7
20260905152140 54 276 5.2 7.8 0.00 0.00 0.00 85 994.8
20260905151941 54 275 6.1 7.8 0.00 0.00 0.00 85 994.7
20260905151740 54 267 7.0 8.7 0.00 0.00 0.00 85 994.8
20260905151541 54 263 8.7 12.2 0.00 0.00 0.00 85 994.9
20260905151342 54 263 9.6 13.0 0.00 0.00 0.00 85 994.9
20260905151141 54 272 8.7 12.2 0.00 0.00 0.00 85 995.0
20260905150940 55 274 8.7 13.9 0.00 0.00 0.00 84 995.0
20260905150741 55 276 12.2 13.9 0.00 0.00 0.00 84 995.0
20260905150540 55 276 11.3 15.6 0.00 0.00 0.00 84 994.9
20260905150340 55 280 10.4 15.6 0.00 0.00 0.00 84 994.8
20260905150140 55 281 10.4 15.6 0.00 0.00 0.00 84 994.8
20260905145940 55 286 11.3 15.6 0.00 0.00 0.00 84 994.8
20260905145740 54 302 10.4 13.9 0.00 0.00 0.00 84 994.8
20260905145540 54 305 7.8 10.4 0.00 0.00 0.00 84 994.9
20260905145340 55 294 7.8 10.4 0.00 0.00 0.00 84 994.9
20260905145140 55 292 7.0 9.6 0.00 0.00 0.00 84 994.9
20260905144940 55 293 8.7 12.2 0.00 0.00 0.00 84 994.9
20260905144740 55 295 8.7 13.0 0.00 0.00 0.00 83 995.0
20260905144540 56 298 11.3 16.5 0.00 0.00 0.00 82 995.0
20260905144340 57 300 12.2 15.6 0.00 0.00 0.00 81 994.9
20260905144134 58 301 12.2 16.5 0.00 0.00 0.00 81 994.8
20260905143934 59 304 14.8 20.9 0.00 0.00 0.00 80 994.6
20260905143734 61 311 17.4 22.6 0.00 0.00 0.00 80 994.3
20260905143533 62 310 12.2 22.6 0.00 0.00 0.00 81 993.8
20260905143333 62 297 7.0 10.4 0.00 0.00 0.00 81 993.5
20260905143134 62 299 5.2 7.0 0.00 0.00 0.00 81 993.5
20260905142933 62 292 4.3 7.0 0.00 0.00 0.00 81 993.5
20260905142733 62 283 5.2 7.8 0.00 0.00 0.00 81 993.5
20260905142538 62 281 5.2 6.1 0.00 0.00 0.00 81 993.5
20260905142333 62 272 4.3 6.1 0.00 0.00 0.00 81 993.4
20260905142134 61 268 4.3 7.0 0.00 0.00 0.00 81 993.4
20260905141933 61 268 5.2 7.0 0.00 0.00 0.00 81 993.4
20260905141733 61 266 5.2 7.8 0.00 0.00 0.00 81 993.4
20260905141533 61 268 5.2 7.8 0.00 0.00 0.00 81 993.4
20260905141333 61 265 5.2 7.8 0.00 0.00 0.00 81 993.4
20260905141133 61 270 5.2 7.8 0.00 0.00 0.00 81 993.3
20260905140933 61 262 6.1 8.7 0.00 0.00 0.00 81 993.3
20260905140733 61 256 6.1 7.8 0.00 0.00 0.00 81 993.3
20260905140533 61 260 6.1 8.7 0.00 0.00 0.00 81 993.4
20260905140332 61 270 7.0 8.7 0.00 0.00 0.00 81 993.2
20260905140132 61 268 6.1 8.7 0.00 0.00 0.00 81 993.1
20260905135932 61 266 7.8 9.6 0.00 0.00 0.00 81 993.1
20260905135732 61 267 7.8 10.4 0.00 0.00 0.00 81 993.1
20260905135532 61 269 7.8 9.6 0.00 0.00 0.00 81 993.2
20260905135332 61 261 7.8 9.6 0.00 0.00 0.00 81 993.2
20260905135133 60 260 7.8 9.6 0.00 0.00 0.00 81 993.3
20260905134933 60 255 8.7 11.3 0.00 0.00 0.00 81 993.4
20260905134732 60 259 9.6 11.3 0.00 0.00 0.00 81 993.3
20260905134532 60 258 9.6 11.3 0.00 0.00 0.00 81 993.3
20260905134332 60 253 7.8 10.4 0.00 0.00 0.00 81 993.1
20260905134132 60 254 7.8 10.4 0.00 0.00 0.00 82 993.0
20260905133932 60 260 7.0 9.6 0.00 0.00 0.00 82 993.0
20260905133732 60 260 7.8 8.7 0.00 0.00 0.00 82 993.0
20260905133532 59 265 7.0 8.7 0.00 0.00 0.00 82 992.9
20260905133331 59 266 7.0 9.6 0.00 0.00 0.00 82 992.9
20260905133131 59 266 7.8 10.4 0.00 0.00 0.00 82 992.9
20260905132931 59 266 8.7 12.2 0.00 0.00 0.00 82 992.9
20260905132731 58 266 7.0 8.7 0.00 0.00 0.00 82 992.9
20260905132531 58 267 7.0 8.7 0.00 0.00 0.00 82 992.9
20260905132331 57 268 6.1 8.7 0.00 0.00 0.00 82 993.0
20260905132131 57 275 6.1 9.6 0.00 0.00 0.00 82 993.0
20260905131931 57 272 5.2 9.6 0.00 0.00 0.00 82 993.1
20260905131731 57 272 5.2 8.7 0.00 0.00 0.00 82 993.2
20260905131531 57 274 5.2 7.8 0.00 0.00 0.00 82 993.2
20260905131331 56 269 7.0 9.6 0.00 0.00 0.00 82 993.3
20260905131131 56 265 7.0 9.6 0.00 0.00 0.00 81 993.4
20260905130931 56 261 7.0 9.6 0.00 0.00 0.00 81 993.4
20260905130731 56 260 8.7 13.0 0.00 0.00 0.00 81 993.5
20260905130531 56 264 8.7 13.0 0.00 0.00 0.00 81 993.7
20260905130331 56 266 7.0 8.7 0.00 0.00 0.00 81 993.8
20260905130130 56 264 8.7 10.4 0.00 0.00 0.00 81 993.9
20260905125931 56 265 10.4 13.9 0.00 0.00 0.00 80 994.1
20260905125730 55 275 12.2 19.1 0.00 0.00 0.00 80 994.2
20260905125530 56 276 13.9 19.1 0.00 0.00 0.00 79 994.4
20260905125330 58 281 13.9 20.9 0.00 0.00 0.00 78 994.5
20260905125130 60 281 17.4 24.3 0.00 0.00 0.00 76 994.6
20260905124930 62 283 20.9 31.3 0.00 0.00 0.00 75 994.3
20260905124730 63 270 19.1 31.3 0.00 0.00 0.00 74 993.9
20260905124530 64 252 15.6 24.3 0.00 0.00 0.00 73 993.3
20260905124028 64 251 16.5 21.7 0.00 0.00 0.00 73 992.8
20260905123828 64 248 15.6 20.9 0.00 0.00 0.00 73 992.8
20260905123628 65 244 16.5 20.9 0.00 0.00 0.00 73 992.7
20260905123428 65 241 16.5 20.0 0.00 0.00 0.00 73 992.7
20260905123227 65 241 16.5 20.0 0.00 0.00 0.00 73 992.6
20260905123028 65 241 16.5 19.1 0.00 0.00 0.00 73 992.6
20260905122828 65 243 14.8 19.1 0.00 0.00 0.00 73 992.4
20260905122628 65 243 16.5 21.7 0.00 0.00 0.00 73 992.4
20260905122427 65 242 19.1 23.5 0.00 0.00 0.00 73 992.4
20260905122226 64 243 20.0 23.5 0.00 0.00 0.00 73 992.5
20260905122027 64 237 19.1 23.5 0.00 0.00 0.00 73 992.6
20260905121827 64 240 17.4 24.3 0.00 0.00 0.00 73 992.7
20260905121627 64 247 19.1 24.3 0.00 0.00 0.00 73 992.6
20260905121427 64 244 18.2 23.5 0.00 0.00 0.00 73 992.6
20260905121227 64 241 15.6 20.9 0.00 0.00 0.00 73 992.6
20260905121027 64 247 17.4 22.6 0.00 0.00 0.00 73 992.6
20260905120827 65 244 18.2 22.6 0.00 0.00 0.00 73 992.5
20260905120617 65 239 19.1 22.6 0.00 0.00 0.00 73 992.5
20260905120417 65 246 17.4 20.9 0.00 0.00 0.00 73 992.5
20260905120218 65 242 19.1 27.8 0.00 0.00 0.00 73 992.4
20260905120017 65 241 20.9 27.8 0.00 0.00 0.00 74 992.1
20260905115817 65 233 19.1 23.5 0.00 0.00 0.00 74 992.0
20260905115617 65 232 14.8 23.5 0.00 0.00 0.00 75 992.1
20260905115417 65 241 15.6 20.0 0.00 0.00 0.00 75 992.4
20260905115218 64 238 14.8 21.7 0.00 0.00 0.00 75 992.5
20260905115017 64 253 13.0 16.5 0.00 0.00 0.00 75 992.4
20260905114817 64 259 14.8 22.6 0.00 0.00 0.00 75 992.4
20260905114617 64 251 13.9 20.0 0.00 0.00 0.00 75 992.4
20260905114417 64 247 14.8 20.0 0.00 0.00 0.00 75 992.4
20260905114218 64 253 13.9 20.9 0.00 0.00 0.00 75 992.6
20260905114017 64 248 16.5 20.9 0.00 0.00 0.00 75 992.5
20260905113817 64 244 15.6 20.9 0.00 0.00 0.00 75 992.4
20260905113617 64 243 15.6 20.9 0.00 0.00 0.00 76 992.4
20260905113416 64 249 13.9 16.5 0.00 0.00 0.00 76 992.4
20260905113216 64 251 14.8 19.1 0.00 0.00 0.00 76 992.5
20260905113016 64 247 16.5 20.9 0.00 0.00 0.00 76 992.4
20260905112816 64 245 17.4 22.6 0.00 0.00 0.00 76 992.4
20260905112618 64 252 18.2 26.1 0.00 0.00 0.00 76 992.5
20260905112416 64 246 19.1 27.8 0.00 0.00 0.00 76 992.5
20260905112216 63 240 19.1 27.8 0.00 0.00 0.00 77 992.4
20260905112016 63 243 18.2 23.5 0.00 0.00 0.00 77 992.3
20260905111816 63 243 19.1 22.6 0.00 0.00 0.00 77 992.2
20260905111616 63 237 16.5 22.6 0.00 0.00 0.00 78 992.2
20260905111416 63 235 18.2 24.3 0.00 0.00 0.00 78 992.2
20260905111216 62 239 16.5 24.3 0.00 0.00 0.00 78 992.2
20260905111015 62 235 15.6 20.9 0.00 0.00 0.00 78 992.4
20260905110816 62 234 14.8 20.9 0.00 0.00 0.00 78 992.6
20260905110616 62 240 13.9 19.1 0.00 0.00 0.00 78 992.6
20260905110415 62 236 17.4 21.7 0.00 0.00 0.00 78 992.6
20260905110215 62 240 17.4 22.6 0.00 0.00 0.00 78 992.5
20260905110015 62 235 16.5 23.5 0.00 0.00 0.00 78 992.5
20260905105815 62 237 17.4 24.3 0.00 0.00 0.00 78 992.4
20260905105615 62 247 17.4 23.5 0.00 0.00 0.00 78 992.4
20260905105415 62 244 17.4 22.6 0.00 0.00 0.00 78 992.4
20260905105215 62 243 17.4 25.2 0.00 0.00 0.00 78 992.4
20260905105015 62 243 13.9 19.1 0.00 0.00 0.00 78 992.3
20260905104815 62 238 18.2 27.8 0.00 0.00 0.00 78 992.4
20260905104615 62 237 18.2 24.3 0.00 0.00 0.00 79 992.4
20260905104415 61 241 18.2 25.2 0.00 0.00 0.00 79 992.4
20260905104214 61 242 16.5 25.2 0.00 0.00 0.00 79 992.3
20260905104015 61 239 14.8 18.2 0.00 0.00 0.00 79 992.3
20260905103815 61 240 14.8 18.2 0.00 0.00 0.00 79 992.3
20260905103615 61 244 16.5 24.3 0.00 0.00 0.00 79 992.3
20260905103415 61 242 17.4 24.3 0.00 0.00 0.00 79 992.3
20260905103214 61 240 13.9 20.9 0.00 0.00 0.00 79 992.2
20260905103015 61 242 13.9 17.4 0.00 0.00 0.00 79 992.2
20260905102815 62 239 15.6 21.7 0.00 0.00 0.00 79 992.3
20260905102615 62 239 19.1 25.2 0.00 0.00 0.00 79 992.2
20260905102415 62 240 20.9 27.8 0.00 0.00 0.00 79 992.0
20260905102214 62 233 20.0 27.8 0.00 0.00 0.00 79 991.9
20260905102015 62 233 18.2 25.2 0.00 0.00 0.00 79 991.7
20260905101814 62 241 15.6 20.9 0.00 0.00 0.00 79 991.6
20260905101614 61 238 14.8 18.2 0.00 0.00 0.00 80 991.7
20260905101414 61 234 13.9 18.2 0.00 0.00 0.00 80 991.8
20260905101213 60 240 12.2 16.5 0.00 0.00 0.00 80 991.9
20260905101014 60 241 13.9 17.4 0.00 0.00 0.00 80 992.1
20260905100814 61 240 14.8 20.0 0.00 0.00 0.00 79 992.3
20260905100615 61 244 16.5 20.9 0.00 0.00 0.00 79 992.4
20260905100414 61 241 20.0 29.5 0.00 0.00 0.00 79 992.2
20260905100213 62 243 15.6 20.9 0.00 0.00 0.00 79 992.0
20260905100014 62 243 16.5 26.1 0.00 0.00 0.00 79 991.8
20260905095814 62 244 14.8 26.1 0.00 0.00 0.00 79 991.8
20260905095614 62 243 16.5 26.9 0.00 0.00 0.00 79 991.8
20260905095414 62 234 15.6 21.7 0.00 0.00 0.00 79 991.7
20260905095213 62 238 15.6 19.1 0.00 0.00 0.00 79 991.8
20260905095014 62 238 18.2 23.5 0.00 0.00 0.00 79 991.8
20260905094814 62 242 19.1 23.5 0.00 0.00 0.00 79 991.8
20260905094613 62 248 17.4 21.7 0.00 0.00 0.00 79 991.7
20260905094413 61 251 17.4 20.9 0.00 0.00 0.00 79 991.7
20260905094212 61 242 15.6 20.9 0.00 0.00 0.00 80 991.7
20260905094013 61 237 15.6 24.3 0.00 0.00 0.00 80 991.8
20260905093813 61 234 16.5 24.3 0.00 0.00 0.00 80 991.9
20260905093613 62 241 14.8 23.5 0.00 0.00 0.00 80 991.9
20260905093412 62 247 16.5 24.3 0.00 0.00 0.00 80 991.8
20260905093005 62 235 15.6 20.0 0.00 0.00 0.00 80 991.7
20260905092805 61 236 15.6 20.9 0.00 0.00 0.00 80 991.6
20260905092605 61 238 14.8 20.9 0.00 0.00 0.00 81 991.6
20260905092405 61 240 14.8 20.9 0.00 0.00 0.00 81 991.7
20260905092205 61 241 17.4 22.6 0.00 0.00 0.00 80 991.6
20260905092005 61 242 16.5 22.6 0.00 0.00 0.00 81 991.6
20260905091805 61 237 14.8 17.4 0.00 0.00 0.00 81 991.5
20260905091604 61 239 13.9 16.5 0.00 0.00 0.00 81 991.5
20260905091404 61 240 14.8 20.0 0.00 0.00 0.00 81 991.5
20260905091204 60 237 15.6 20.0 0.00 0.00 0.00 81 991.5
20260905091004 60 236 15.6 20.0 0.00 0.00 0.00 82 991.5
20260905090804 60 239 15.6 22.6 0.00 0.00 0.00 82 991.5
20260905090604 60 241 16.5 24.3 0.00 0.00 0.00 82 991.6
20260905090404 60 245 13.9 18.2 0.00 0.00 0.00 82 991.7
20260905090204 60 242 14.8 20.0 0.00 0.00 0.00 82 991.7
20260905090004 60 244 14.8 19.1 0.00 0.00 0.00 82 991.7
20260905085804 60 240 13.0 19.1 0.00 0.00 0.00 82 991.8
20260905085604 60 240 15.6 23.5 0.00 0.00 0.00 81 991.7
20260905085404 60 242 17.4 22.6 0.00 0.00 0.00 81 991.8
20260905085204 60 238 19.1 23.5 0.00 0.00 0.00 82 991.7
20260905085004 60 240 18.2 24.3 0.00 0.00 0.00 81 991.7
20260905084804 60 238 18.2 24.3 0.00 0.00 0.00 82 991.7
20260905084604 60 234 15.6 21.7 0.00 0.00 0.00 82 991.6
20260905084403 60 242 14.8 20.9 0.00 0.00 0.00 82 991.6
20260905084203 60 240 14.8 20.9 0.00 0.00 0.00 82 991.7
20260905084003 60 241 15.6 19.1 0.00 0.00 0.00 82 991.7
20260905083803 60 238 17.4 21.7 0.00 0.00 0.00 82 991.6
20260905083603 60 239 15.6 21.7 0.00 0.00 0.00 82 991.5
20260905083403 60 238 13.0 17.4 0.00 0.00 0.00 82 991.5
20260905083203 60 243 15.6 20.9 0.00 0.00 0.00 82 991.4
20260905083003 60 241 18.2 23.5 0.00 0.00 0.00 82 991.3
20260905082803 60 237 16.5 23.5 0.00 0.00 0.00 82 991.2
20260905082603 60 238 18.2 23.5 0.00 0.00 0.00 82 991.2
20260905082403 60 240 17.4 24.3 0.00 0.00 0.00 82 991.1
20260905082203 60 238 20.0 26.9 0.00 0.00 0.00 82 991.1
20260905082003 60 241 18.2 26.1 0.00 0.00 0.00 82 991.2
20260905081803 60 243 18.2 25.2 0.00 0.00 0.00 82 991.2
20260905081603 60 251 15.6 21.7 0.00 0.00 0.00 83 991.2
20260905081402 60 243 18.2 24.3 0.00 0.00 0.00 83 991.1
20260905081202 60 241 18.2 24.3 0.00 0.00 0.00 83 991.1
20260905081002 60 241 17.4 25.2 0.00 0.00 0.00 83 991.0
20260905080802 60 238 16.5 25.2 0.00 0.00 0.00 83 991.0
20260905080602 60 237 18.2 24.3 0.00 0.00 0.00 83 991.0
20260905080402 59 244 14.8 21.7 0.00 0.00 0.00 84 991.0
20260905080202 59 243 15.6 21.7 0.00 0.00 0.00 84 991.0
20260905080002 59 240 13.9 20.0 0.00 0.00 0.00 84 991.0
20260905075802 59 241 12.2 19.1 0.00 0.00 0.00 84 991.0
20260905075602 59 246 15.6 20.9 0.00 0.00 0.00 84 991.1
20260905075402 59 237 17.4 21.7 0.00 0.00 0.00 84 991.1
20260905075201 59 242 19.1 23.5 0.00 0.00 0.00 84 991.0
20260905075002 59 241 17.4 23.5 0.00 0.00 0.00 84 990.9
20260905074802 59 239 14.8 21.7 0.00 0.00 0.00 84 990.9
20260905074602 59 244 14.8 20.0 0.00 0.00 0.00 84 990.9
20260905074402 59 244 17.4 24.3 0.00 0.00 0.00 84 990.9
20260905074200 59 243 16.5 24.3 0.00 0.00 0.00 84 990.9
20260905074001 59 238 12.2 15.6 0.00 0.00 0.00 84 990.9
20260905073801 59 241 14.8 24.3 0.00 0.00 0.00 84 991.0
20260905073601 59 239 17.4 24.3 0.00 0.00 0.00 84 990.9
20260905073401 59 240 15.6 20.9 0.00 0.00 0.00 84 990.8
20260905073200 59 237 13.0 17.4 0.00 0.00 0.00 84 990.8
20260905073001 59 240 15.6 21.7 0.00 0.00 0.00 84 990.8
20260905072801 59 238 17.4 26.1 0.00 0.00 0.00 84 990.7
20260905072601 59 241 17.4 25.2 0.00 0.00 0.00 84 990.7
20260905072401 59 236 15.6 20.0 0.00 0.00 0.00 84 990.7
20260905072200 59 232 16.5 25.2 0.00 0.00 0.00 84 990.6
20260905072001 59 235 19.1 26.1 0.00 0.00 0.00 84 990.4
20260905071801 59 239 17.4 26.1 0.00 0.00 0.00 84 990.3
20260905071601 59 242 17.4 19.1 0.00 0.00 0.00 84 990.3
20260905071401 59 242 19.1 26.1 0.00 0.00 0.00 84 990.2
20260905071159 59 244 18.2 26.9 0.00 0.00 0.00 84 990.1
20260905071000 59 242 18.2 22.6 0.00 0.00 0.00 85 990.1
20260905070800 59 238 17.4 22.6 0.00 0.00 0.00 85 990.1
20260905070600 59 239 16.5 25.2 0.00 0.00 0.00 85 990.2
20260905070400 59 241 16.5 20.0 0.00 0.00 0.00 85 990.1
20260905070200 59 233 13.0 17.4 0.00 0.00 0.00 85 990.1
20260905070000 59 237 13.9 18.2 0.00 0.00 0.00 85 990.1
20260905065759 59 238 13.0 18.2 0.00 0.00 0.00 85 990.1
20260905065555 59 235 13.0 18.2 0.00 0.00 0.00 85 990.1
20260905065355 59 232 11.3 13.9 0.00 0.00 0.00 85 990.1
20260905065155 59 236 13.9 18.2 0.00 0.00 0.00 85 990.1
20260905064955 59 235 13.0 18.2 0.00 0.00 0.00 85 990.1
20260905064755 59 235 13.0 17.4 0.00 0.00 0.00 85 990.1
20260905064555 59 243 13.9 17.4 0.00 0.00 0.00 85 990.1
20260905064355 58 242 13.9 18.2 0.00 0.00 0.00 85 990.0
20260905064154 58 236 13.9 20.0 0.00 0.00 0.00 85 990.0
20260905063954 58 238 12.2 15.6 0.00 0.00 0.00 85 990.1
20260905063754 58 237 12.2 19.1 0.00 0.00 0.00 85 990.1
20260905063554 58 239 13.0 19.1 0.00 0.00 0.00 85 990.0
20260905063354 58 234 13.9 19.1 0.00 0.00 0.00 85 990.0
20260905063154 58 237 13.0 19.1 0.00 0.00 0.00 85 990.1
20260905062954 58 240 13.9 19.1 0.00 0.00 0.00 85 990.1
20260905062754 58 240 15.6 20.0 0.00 0.00 0.00 85 990.0
20260905062554 58 238 13.9 16.5 0.00 0.00 0.00 85 990.0
20260905062354 58 238 15.6 22.6 0.00 0.00 0.00 85 990.0
20260905062154 59 238 13.9 22.6 0.00 0.00 0.00 85 990.0
20260905061954 59 238 14.8 20.0 0.00 0.00 0.00 85 989.9
20260905061754 59 235 14.8 20.0 0.00 0.00 0.00 85 989.9
20260905061554 59 238 13.9 20.9 0.00 0.00 0.00 85 989.9
20260905061354 59 241 13.9 18.2 0.00 0.00 0.00 85 989.8
20260905061154 58 241 13.9 17.4 0.00 0.00 0.00 85 989.8
20260905060953 58 236 14.8 18.2 0.00 0.00 0.00 85 989.7
20260905060753 58 238 10.4 17.4 0.00 0.00 0.00 85 989.7
20260905060553 58 242 10.4 13.9 0.00 0.00 0.00 85 989.8
20260905060353 58 242 12.2 15.6 0.00 0.00 0.00 85 989.8
20260905060153 59 244 11.3 13.9 0.00 0.00 0.00 84 989.7
20260905055953 59 242 12.2 15.6 0.00 0.00 0.00 84 989.7
20260905055753 59 240 13.0 16.5 0.00 0.00 0.00 84 989.6
20260905055553 59 246 14.8 18.2 0.00 0.00 0.00 84 989.5
20260905055353 59 251 14.8 18.2 0.00 0.00 0.00 84 989.5
20260905055153 59 248 15.6 21.7 0.00 0.00 0.00 84 989.4
20260905054953 59 249 14.8 21.7 0.00 0.00 0.00 84 989.3
20260905054753 59 248 12.2 16.5 0.00 0.00 0.00 85 989.2
20260905054553 58 250 12.2 16.5 0.00 0.00 0.00 84 989.3
20260905054353 58 253 13.0 19.1 0.00 0.00 0.00 84 989.3
20260905054153 58 253 12.2 13.9 0.00 0.00 0.00 84 989.4
20260905053953 58 253 13.0 19.1 0.00 0.00 0.00 85 989.4
20260905053752 58 251 12.2 19.1 0.00 0.00 0.00 85 989.3
20260905053552 58 246 11.3 14.8 0.00 0.00 0.00 85 989.3
20260905053352 58 247 12.2 16.5 0.00 0.00 0.00 85 989.3
20260905053152 58 252 13.0 19.1 0.00 0.00 0.00 84 989.3
20260905052952 58 249 13.9 20.0 0.00 0.00 0.00 85 989.3
20260905052752 58 248 13.9 20.0 0.00 0.00 0.00 85 989.3
20260905052552 58 252 12.2 15.6 0.00 0.00 0.00 85 989.2
20260905052352 58 251 13.0 17.4 0.00 0.00 0.00 85 989.2
20260905052151 58 253 13.0 16.5 0.00 0.00 0.00 85 989.0
20260905051952 58 248 13.9 20.9 0.00 0.00 0.00 85 988.9
20260905051751 58 246 14.8 24.3 0.00 0.00 0.00 85 988.8
20260905051552 58 247 13.9 24.3 0.00 0.00 0.00 85 988.8
20260905051352 58 252 12.2 16.5 0.00 0.00 0.00 85 988.9
20260905051151 58 246 12.2 15.6 0.00 0.00 0.00 85 988.9
20260905050952 58 248 12.2 14.8 0.00 0.00 0.00 85 988.9
20260905050751 58 250 12.2 15.6 0.00 0.00 0.00 85 988.9
20260905050551 58 252 13.0 15.6 0.00 0.00 0.00 85 988.7
20260905050351 58 252 13.9 21.7 0.00 0.00 0.00 85 988.6
20260905050150 58 246 13.0 21.7 0.00 0.00 0.00 86 988.5
20260905045951 58 246 13.0 16.5 0.00 0.00 0.00 86 988.4
20260905045751 58 246 12.2 16.5 0.00 0.00 0.00 86 988.3
20260905045551 58 243 12.2 15.6 0.00 0.00 0.00 86 988.2
20260905045351 58 240 12.2 17.4 0.00 0.00 0.00 86 988.3
20260905045150 58 248 13.9 20.9 0.00 0.00 0.00 86 988.3
20260905044951 58 246 14.8 20.9 0.00 0.00 0.00 86 988.5
20260905044751 58 245 12.2 18.2 0.00 0.00 0.00 86 988.5
20260905044550 58 246 13.0 18.2 0.00 0.00 0.00 86 988.4
20260905044350 58 244 13.9 19.1 0.00 0.00 0.00 86 988.3
20260905044150 58 247 15.6 20.9 0.00 0.00 0.00 86 988.3
20260905043951 59 245 13.0 20.9 0.00 0.00 0.00 86 988.2
20260905043751 59 246 13.0 20.0 0.00 0.00 0.00 86 988.2
20260905043550 59 242 13.9 20.0 0.00 0.00 0.00 87 988.2
20260905043350 59 242 13.0 15.6 0.00 0.00 0.00 86 988.1
20260905043149 59 241 15.6 22.6 0.00 0.00 0.00 87 988.0
20260905042950 59 240 14.8 20.0 0.00 0.00 0.00 87 988.0
20260905042750 59 240 12.2 18.2 0.00 0.00 0.00 87 988.0
20260905042550 59 240 13.9 18.2 0.00 0.00 0.00 87 988.0
20260905042350 59 239 11.3 17.4 0.00 0.00 0.00 87 987.9
20260905041942 59 235 14.8 17.4 0.00 0.00 0.00 87 987.9
20260905041742 59 237 12.2 17.4 0.00 0.00 0.00 86 987.9
20260905041542 59 238 10.4 14.8 0.00 0.00 0.00 86 987.8
20260905041342 60 243 10.4 13.9 0.00 0.00 0.00 86 987.8
20260905041142 60 248 13.0 16.5 0.00 0.00 0.00 86 987.7
20260905040942 60 251 14.8 21.7 0.00 0.00 0.00 86 987.7
20260905040741 60 252 13.9 21.7 0.00 0.00 0.00 86 987.6
20260905040541 60 249 13.0 16.5 0.00 0.00 0.00 86 987.6
20260905040341 60 249 12.2 18.2 0.00 0.00 0.00 86 987.6
20260905040141 60 248 12.2 16.5 0.00 0.00 0.00 86 987.6
20260905035941 60 250 13.0 16.5 0.00 0.00 0.00 86 987.5
20260905035741 60 248 12.2 16.5 0.00 0.00 0.00 86 987.5
20260905035541 60 248 12.2 17.4 0.00 0.00 0.00 86 987.5
20260905035341 60 246 11.3 14.8 0.00 0.00 0.00 86 987.4
20260905035141 60 244 12.2 15.6 0.00 0.00 0.00 86 987.3
20260905034941 60 246 12.2 17.4 0.00 0.00 0.00 87 987.3
20260905034741 60 248 12.2 17.4 0.00 0.00 0.00 87 987.3
20260905034541 60 247 12.2 15.6 0.00 0.00 0.00 87 987.3
20260905034341 60 247 13.0 16.5 0.00 0.00 0.00 87 987.2
20260905034141 60 245 15.6 22.6 0.00 0.00 0.00 87 987.2
20260905033941 60 240 14.8 20.9 0.00 0.00 0.00 87 987.2
20260905033740 60 244 13.9 18.2 0.00 0.00 0.00 88 987.1
20260905033540 60 244 13.9 17.4 0.00 0.00 0.00 88 987.1
20260905033340 60 245 13.9 17.4 0.00 0.00 0.00 88 987.1
20260905033140 60 239 13.9 20.9 0.00 0.00 0.00 88 987.1
20260905032940 60 243 13.0 16.5 0.00 0.00 0.00 88 987.1
20260905032740 60 237 13.0 16.5 0.00 0.00 0.00 89 987.0
20260905032540 60 240 13.9 18.2 0.00 0.00 0.00 89 987.0
20260905032340 60 238 13.9 17.4 0.00 0.00 0.00 89 986.9
20260905032139 60 240 13.9 21.7 0.00 0.00 0.00 89 986.9
20260905031940 60 236 11.3 15.6 0.00 0.00 0.00 89 986.9
20260905031740 60 241 12.2 15.6 0.00 0.00 0.00 89 986.9
20260905031539 61 243 13.0 17.4 0.00 0.00 0.00 89 986.9
20260905031340 61 241 13.9 20.9 0.00 0.00 0.00 89 986.9
20260905031140 60 238 13.9 18.2 0.00 0.00 0.00 89 986.8
20260905030940 60 237 13.9 20.9 0.00 0.00 0.00 90 986.7
20260905030740 60 235 15.6 21.7 0.00 0.00 0.00 90 986.7
20260905030539 60 236 15.6 21.7 0.00 0.00 0.00 90 986.7
20260905030339 60 231 12.2 21.7 0.00 0.00 0.00 90 986.6
20260905030139 61 233 13.9 20.9 0.00 0.00 0.00 90 986.6
20260905025939 60 234 13.0 20.9 0.00 0.00 0.00 90 986.6
20260905025739 60 229 12.2 16.5 0.00 0.00 0.00 90 986.6
20260905025539 61 230 14.8 20.9 0.00 0.00 0.00 90 986.6
20260905025339 61 228 13.0 20.9 0.00 0.00 0.00 90 986.6
20260905025139 61 230 11.3 14.8 0.00 0.00 0.00 90 986.6
20260905024939 61 228 11.3 15.6 0.00 0.00 0.00 90 986.6
20260905024739 61 229 13.9 15.6 0.00 0.00 0.00 91 986.6
20260905024539 61 228 13.0 17.4 0.00 0.00 0.00 91 986.5
20260905024339 60 228 13.0 16.5 0.00 0.00 0.00 91 986.4
20260905024139 60 228 12.2 16.5 0.00 0.00 0.00 91 986.4
20260905023939 60 229 12.2 15.6 0.00 0.00 0.00 91 986.3
20260905023739 60 228 13.0 15.6 0.00 0.00 0.00 91 986.3
20260905023538 60 229 11.3 14.8 0.00 0.00 0.00 91 986.3
20260905023337 60 232 13.0 18.2 0.00 0.00 0.00 91 986.2
20260905023137 60 228 11.3 18.2 0.00 0.00 0.00 91 986.2
20260905022939 60 225 9.6 13.9 0.00 0.00 0.00 91 986.2
20260905022737 60 227 11.3 13.9 0.00 0.00 0.00 91 986.2
20260905022539 60 225 11.3 13.9 0.00 0.00 0.00 91 986.2
20260905022337 60 226 11.3 14.8 0.00 0.00 0.00 91 986.1
20260905022138 60 228 10.4 14.8 0.00 0.00 0.00 91 986.1
20260905021937 60 228 10.4 14.8 0.00 0.00 0.00 91 986.1
20260905021737 60 226 10.4 13.9 0.00 0.00 0.00 91 986.1
20260905021537 60 222 10.4 13.9 0.00 0.00 0.00 91 986.1
20260905021337 60 223 9.6 13.0 0.00 0.00 0.00 91 986.1
20260905021137 60 223 9.6 12.2 0.00 0.00 0.00 90 986.1
20260905020937 60 223 10.4 12.2 0.00 0.00 0.00 90 986.1
20260905020737 60 225 9.6 13.0 0.00 0.00 0.00 90 986.1
20260905020537 60 224 11.3 13.9 0.00 0.00 0.00 90 986.1
20260905020336 60 227 10.4 13.9 0.00 0.00 0.00 90 986.1
20260905020136 60 227 11.3 16.5 0.00 0.00 0.00 90 986.0
20260905015936 60 221 12.2 16.5 0.00 0.00 0.00 90 986.0
20260905015736 60 224 12.2 14.8 0.00 0.00 0.00 90 986.0
20260905015536 60 223 11.3 14.8 0.00 0.00 0.00 90 985.9
20260905015336 60 221 10.4 13.9 0.00 0.00 0.00 90 985.9
20260905015136 60 224 10.4 13.0 0.00 0.00 0.00 90 986.0
20260905014936 60 224 8.7 11.3 0.00 0.00 0.00 89 986.0
20260905014736 60 226 7.8 10.4 0.00 0.00 0.00 89 986.0
20260905014528 60 222 8.7 13.9 0.00 0.00 0.00 89 986.0
20260905014328 60 218 9.6 13.9 0.00 0.00 0.00 89 986.1
20260905014128 61 218 9.6 13.0 0.00 0.00 0.00 89 986.1
20260905013928 61 218 10.4 14.8 0.00 0.00 0.00 89 986.1
20260905013728 61 224 9.6 12.2 0.00 0.00 0.00 89 986.2
20260905013528 61 223 10.4 13.0 0.00 0.00 0.00 88 986.1
20260905013328 61 221 11.3 17.4 0.00 0.00 0.00 89 986.1
20260905013128 61 225 10.4 13.0 0.00 0.00 0.00 88 986.2
20260905012927 61 228 9.6 12.2 0.00 0.00 0.00 88 986.2
20260905012727 61 227 9.6 12.2 0.00 0.00 0.00 88 986.1
20260905012527 61 229 9.6 13.9 0.00 0.00 0.00 89 986.1
20260905012327 61 230 10.4 13.9 0.00 0.00 0.00 88 986.0
20260905012127 61 232 8.7 12.2 0.00 0.00 0.00 88 986.0
20260905011927 61 226 8.7 12.2 0.00 0.00 0.00 88 985.9
20260905011727 61 225 10.4 14.8 0.00 0.00 0.00 88 985.8
20260905011527 61 225 10.4 14.8 0.00 0.00 0.00 88 985.8
20260905011327 61 225 12.2 16.5 0.00 0.00 0.00 88 985.9
20260905011127 61 227 12.2 16.5 0.00 0.00 0.00 88 985.9
20260905010927 61 225 11.3 14.8 0.00 0.00 0.00 88 985.9
20260905010727 61 222 9.6 13.0 0.00 0.00 0.00 87 985.8
20260905010527 61 226 10.4 13.9 0.00 0.00 0.00 88 985.8
20260905010327 61 230 10.4 13.9 0.00 0.00 0.00 87 985.8
20260905010127 61 230 9.6 13.9 0.00 0.00 0.00 87 985.8
20260905005927 61 227 9.6 13.9 0.00 0.00 0.00 87 985.8
20260905005726 61 223 9.6 13.9 0.00 0.00 0.00 87 985.8
20260905005526 61 224 10.4 13.9 0.00 0.00 0.00 87 985.8
20260905005326 61 223 11.3 14.8 0.00 0.00 0.00 87 985.7
20260905005126 61 224 9.6 14.8 0.00 0.00 0.00 87 985.7
20260905004926 61 225 8.7 12.2 0.00 0.00 0.00 87 985.8
20260905004726 61 226 8.7 11.3 0.00 0.00 0.00 87 985.8
20260905004526 61 226 9.6 13.0 0.00 0.00 0.00 87 985.8
20260905004326 61 226 10.4 14.8 0.00 0.00 0.00 87 985.8
20260905004126 61 225 9.6 13.9 0.00 0.00 0.00 87 985.8
20260905003926 61 221 10.4 14.8 0.00 0.00 0.00 87 985.8
20260905003726 61 219 10.4 14.8 0.00 0.00 0.00 87 985.8
20260905003526 61 220 9.6 14.8 0.00 0.00 0.00 87 985.8
20260905003326 61 224 9.6 13.9 0.00 0.00 0.00 87 985.9
20260905003128 61 226 10.4 15.6 0.00 0.00 0.00 86 985.8
20260905002926 62 220 9.6 15.6 0.00 0.00 0.00 86 985.8
20260905002725 62 218 11.3 14.8 0.00 0.00 0.00 86 985.7
20260905002525 62 213 11.3 14.8 0.00 0.00 0.00 86 985.7
20260905002325 62 217 11.3 13.9 0.00 0.00 0.00 86 985.7
20260905002124 62 225 8.7 12.2 0.00 0.00 0.00 86 985.8
20260905001925 62 227 9.6 13.9 0.00 0.00 0.00 86 985.8
20260905001725 62 227 11.3 13.9 0.00 0.00 0.00 86 985.8
20260905001525 62 232 12.2 14.8 0.00 0.00 0.00 86 985.7
20260905001325 62 232 13.0 15.6 0.00 0.00 0.00 86 985.7
20260905001124 62 233 12.2 15.6 0.00 0.00 0.00 86 985.7
20260905000925 62 228 12.2 15.6 0.00 0.00 0.00 86 985.6
20260905000725 62 228 13.0 19.1 0.00 0.00 0.00 86 985.6
20260905000525 62 233 12.2 19.1 0.00 0.00 0.00 86 985.6
20260905000325 62 235 12.2 18.2 0.00 0.00 0.00 86 985.6
20260905000124 62 235 12.2 18.2 0.00 0.00 0.00 86 985.6
20260904235925 62 233 11.3 15.6 0.00 0.00 0.00 86 985.6